Time,TemperatureF,DewpointF,PressureIn,WindDirection,WindDirectionDegrees,WindSpeedMPH,WindSpeedGustMPH,Humidity,HourlyPrecipIn,Conditions,Clouds,dailyrainin,SolarRadiationWatts/m^2,SoftwareType,DateUTC
2013-03-02 00:02:00,27.0,20.0,-100.00,SW,218,3.0,9.0,73,0.00,,,0.03,0.000000,,2013-03-02 05:02:00,
2013-03-02 00:12:00,27.0,20.0,-100.00,SW,218,3.0,9.0,73,0.00,,,0.03,0.000000,,2013-03-02 05:12:00,
2013-03-02 00:32:00,26.0,19.0,-100.00,West,272,3.0,5.0,75,0.00,,,0.03,0.000000,,2013-03-02 05:32:00,
2013-03-02 00:42:00,26.0,19.0,-100.00,West,272,3.0,5.0,75,0.00,,,0.03,0.000000,,2013-03-02 05:42:00,
2013-03-02 00:52:00,26.0,19.0,-100.00,West,272,3.0,5.0,75,0.00,,,0.03,0.000000,,2013-03-02 05:52:00,
2013-03-02 01:02:00,26.0,19.0,-100.00,West,272,3.0,5.0,75,0.00,,,0.03,0.000000,,2013-03-02 06:02:00,
2013-03-02 01:11:00,26.0,19.0,-100.00,West,272,3.0,5.0,75,0.00,,,0.03,0.000000,,2013-03-02 06:11:00,
2013-03-02 01:32:00,26.0,19.0,-100.00,West,272,2.0,6.0,75,0.00,,,0.03,0.000000,,2013-03-02 06:32:00,
2013-03-02 01:42:00,26.0,19.0,-100.00,West,272,2.0,6.0,75,0.00,,,0.03,0.000000,,2013-03-02 06:42:00,
2013-03-02 01:52:00,26.0,19.0,-100.00,West,272,2.0,6.0,75,0.00,,,0.03,0.000000,,2013-03-02 06:52:00,
2013-03-02 02:02:00,26.0,19.0,-100.00,West,272,2.0,6.0,75,0.00,,,0.03,0.000000,,2013-03-02 07:02:00,
2013-03-02 02:11:00,26.0,19.0,-100.00,West,272,2.0,6.0,75,0.00,,,0.03,0.000000,,2013-03-02 07:11:00,
2013-03-02 02:32:00,26.0,21.0,-100.00,West,269,2.0,6.0,81,0.00,,,0.03,0.000000,,2013-03-02 07:32:00,
2013-03-02 02:42:00,26.0,21.0,-100.00,West,269,2.0,6.0,81,0.00,,,0.03,0.000000,,2013-03-02 07:42:00,
2013-03-02 02:52:00,26.0,21.0,-100.00,West,269,2.0,6.0,81,0.00,,,0.03,0.000000,,2013-03-02 07:52:00,
2013-03-02 03:01:00,26.0,21.0,-100.00,West,269,2.0,6.0,81,0.00,,,0.03,0.000000,,2013-03-02 08:01:00,
2013-03-02 03:11:00,26.0,21.0,-100.00,West,269,2.0,6.0,81,0.00,,,0.03,0.000000,,2013-03-02 08:11:00,
2013-03-02 03:43:00,26.0,22.0,-100.00,West,276,3.0,6.0,84,0.00,,,0.03,0.000000,,2013-03-02 08:43:00,
2013-03-02 03:52:00,26.0,22.0,-100.00,West,276,3.0,6.0,84,0.00,,,0.03,0.000000,,2013-03-02 08:52:00,
2013-03-02 04:02:00,26.0,22.0,-100.00,West,276,3.0,6.0,84,0.00,,,0.03,0.000000,,2013-03-02 09:02:00,
2013-03-02 04:11:00,26.0,22.0,-100.00,West,276,3.0,6.0,84,0.00,,,0.03,0.000000,,2013-03-02 09:11:00,
2013-03-02 04:16:00,26.0,22.0,-100.00,WSW,253,3.0,6.0,85,0.00,,,0.03,0.000000,,2013-03-02 09:16:00,
2013-03-02 04:32:00,26.0,22.0,-100.00,WSW,253,3.0,6.0,85,0.00,,,0.03,0.000000,,2013-03-02 09:32:00,
2013-03-02 04:42:00,26.0,22.0,-100.00,WSW,253,3.0,6.0,85,0.00,,,0.03,0.000000,,2013-03-02 09:42:00,
2013-03-02 04:52:00,26.0,22.0,-100.00,WSW,253,3.0,6.0,85,0.00,,,0.03,0.000000,,2013-03-02 09:52:00,
2013-03-02 05:01:00,26.0,22.0,-100.00,WSW,253,3.0,6.0,85,0.00,,,0.03,0.000000,,2013-03-02 10:01:00,
2013-03-02 05:43:00,25.0,19.0,-100.00,West,261,2.0,6.0,78,0.00,,,0.03,0.000000,,2013-03-02 10:43:00,
2013-03-02 05:52:00,25.0,19.0,-100.00,West,261,2.0,6.0,78,0.00,,,0.03,0.000000,,2013-03-02 10:52:00,
2013-03-02 06:01:00,25.0,19.0,-100.00,West,261,2.0,6.0,78,0.00,,,0.03,0.000000,,2013-03-02 11:01:00,
2013-03-02 06:11:00,25.0,19.0,-100.00,West,261,2.0,6.0,78,0.00,,,0.03,0.000000,,2013-03-02 11:11:00,
2013-03-02 06:32:00,25.0,20.0,-100.00,SW,217,2.0,7.0,80,0.00,,,0.03,0.000000,,2013-03-02 11:32:00,
2013-03-02 06:42:00,25.0,20.0,-100.00,SW,217,2.0,7.0,80,0.00,,,0.03,0.000000,,2013-03-02 11:42:00,
2013-03-02 06:52:00,25.0,20.0,-100.00,SW,217,2.0,7.0,80,0.00,,,0.03,0.000000,,2013-03-02 11:52:00,
2013-03-02 07:02:00,25.0,20.0,-100.00,SW,217,2.0,7.0,80,0.00,,,0.03,0.000000,,2013-03-02 12:02:00,
2013-03-02 07:11:00,25.0,20.0,-100.00,SW,217,2.0,7.0,80,0.00,,,0.03,0.000000,,2013-03-02 12:11:00,
2013-03-02 07:33:00,25.0,19.0,-100.00,West,264,3.0,7.0,79,0.00,,,0.03,1.000000,,2013-03-02 12:33:00,
2013-03-02 07:43:00,25.0,19.0,-100.00,West,264,3.0,7.0,79,0.00,,,0.03,1.000000,,2013-03-02 12:43:00,
2013-03-02 07:53:00,25.0,19.0,-100.00,West,264,3.0,7.0,79,0.00,,,0.03,1.000000,,2013-03-02 12:53:00,
2013-03-02 08:02:00,25.0,19.0,-100.00,West,264,3.0,7.0,79,0.00,,,0.03,1.000000,,2013-03-02 13:02:00,
2013-03-02 08:11:00,25.0,19.0,-100.00,West,264,3.0,7.0,79,0.00,,,0.03,1.000000,,2013-03-02 13:11:00,
2013-03-02 08:42:00,25.0,19.0,-100.00,WSW,245,3.0,7.0,79,0.00,,,0.03,27.000000,,2013-03-02 13:42:00,
2013-03-02 08:53:00,25.0,19.0,-100.00,WSW,245,3.0,7.0,79,0.00,,,0.03,27.000000,,2013-03-02 13:53:00,
2013-03-02 09:01:00,25.0,19.0,-100.00,WSW,245,3.0,7.0,79,0.00,,,0.03,27.000000,,2013-03-02 14:01:00,
2013-03-02 09:11:00,25.0,19.0,-100.00,WSW,245,3.0,7.0,79,0.00,,,0.03,27.000000,,2013-03-02 14:11:00,
2013-03-02 09:32:00,26.0,18.0,-100.00,WSW,254,3.0,8.0,72,0.00,,,0.03,95.000000,,2013-03-02 14:32:00,
2013-03-02 09:42:00,26.0,18.0,-100.00,WSW,254,3.0,8.0,72,0.00,,,0.03,95.000000,,2013-03-02 14:42:00,
2013-03-02 09:52:00,26.0,18.0,-100.00,WSW,254,3.0,8.0,72,0.00,,,0.03,95.000000,,2013-03-02 14:52:00,
2013-03-02 10:02:00,26.0,18.0,-100.00,WSW,254,3.0,8.0,72,0.00,,,0.03,95.000000,,2013-03-02 15:02:00,
2013-03-02 10:11:00,26.0,18.0,-100.00,WSW,254,3.0,8.0,72,0.00,,,0.03,95.000000,,2013-03-02 15:11:00,
2013-03-02 10:32:00,27.0,17.0,-100.00,West,266,4.0,11.0,66,0.00,,,0.03,146.000000,,2013-03-02 15:32:00,
2013-03-02 10:42:00,27.0,17.0,-100.00,West,266,4.0,11.0,66,0.00,,,0.03,146.000000,,2013-03-02 15:42:00,
2013-03-02 10:52:00,27.0,17.0,-100.00,West,266,4.0,11.0,66,0.00,,,0.03,146.000000,,2013-03-02 15:52:00,
2013-03-02 11:02:00,27.0,17.0,-100.00,West,266,4.0,11.0,66,0.00,,,0.03,146.000000,,2013-03-02 16:02:00,
2013-03-02 11:11:00,27.0,17.0,-100.00,West,266,4.0,11.0,66,0.00,,,0.03,146.000000,,2013-03-02 16:11:00,
2013-03-02 11:32:00,28.0,17.0,-100.00,West,275,4.0,11.0,63,0.01,,,0.02,214.000000,,2013-03-02 16:32:00,
2013-03-02 11:42:00,28.0,17.0,-100.00,West,275,4.0,11.0,63,0.01,,,0.02,214.000000,,2013-03-02 16:42:00,
2013-03-02 11:52:00,28.0,17.0,-100.00,West,275,4.0,11.0,63,0.01,,,0.02,214.000000,,2013-03-02 16:52:00,
2013-03-02 12:01:00,28.0,17.0,-100.00,West,275,4.0,11.0,63,0.01,,,0.02,214.000000,,2013-03-02 17:01:00,
2013-03-02 12:12:00,28.0,17.0,-100.00,West,275,4.0,11.0,63,0.01,,,0.02,214.000000,,2013-03-02 17:12:00,
2013-03-02 12:42:00,29.0,18.0,-100.00,NW,312,4.0,12.0,64,0.00,,,0.01,230.000000,,2013-03-02 17:42:00,
2013-03-02 12:52:00,29.0,18.0,-100.00,NW,312,4.0,12.0,64,0.00,,,0.01,230.000000,,2013-03-02 17:52:00,
2013-03-02 13:02:00,29.0,18.0,-100.00,NW,312,4.0,12.0,64,0.00,,,0.01,230.000000,,2013-03-02 18:02:00,
2013-03-02 13:11:00,29.0,18.0,-100.00,NW,312,4.0,12.0,64,0.00,,,0.01,230.000000,,2013-03-02 18:11:00,
2013-03-02 13:32:00,30.0,19.0,-100.00,West,273,4.0,9.0,62,0.00,,,0.01,351.000000,,2013-03-02 18:32:00,
2013-03-02 13:42:00,30.0,19.0,-100.00,West,273,4.0,9.0,62,0.00,,,0.01,351.000000,,2013-03-02 18:42:00,
2013-03-02 13:52:00,30.0,19.0,-100.00,West,273,4.0,9.0,62,0.00,,,0.01,351.000000,,2013-03-02 18:52:00,
2013-03-02 14:02:00,30.0,19.0,-100.00,West,273,4.0,9.0,62,0.00,,,0.01,351.000000,,2013-03-02 19:02:00,
2013-03-02 14:12:00,30.0,19.0,-100.00,West,273,4.0,9.0,62,0.00,,,0.01,351.000000,,2013-03-02 19:12:00,
2013-03-02 14:43:00,29.0,18.0,-100.00,WSW,251,4.0,8.0,63,0.00,,,0.01,173.000000,,2013-03-02 19:43:00,
2013-03-02 14:52:00,29.0,18.0,-100.00,WSW,251,4.0,8.0,63,0.00,,,0.01,173.000000,,2013-03-02 19:52:00,
2013-03-02 15:02:00,29.0,18.0,-100.00,WSW,251,4.0,8.0,63,0.00,,,0.01,173.000000,,2013-03-02 20:02:00,
2013-03-02 15:11:00,29.0,18.0,-100.00,WSW,251,4.0,8.0,63,0.00,,,0.01,173.000000,,2013-03-02 20:11:00,
2013-03-02 15:42:00,29.0,19.0,-100.00,West,278,5.0,11.0,67,0.00,,,0.01,133.000000,,2013-03-02 20:42:00,
2013-03-02 15:53:00,29.0,19.0,-100.00,West,278,5.0,11.0,67,0.00,,,0.01,133.000000,,2013-03-02 20:53:00,
2013-03-02 16:02:00,29.0,19.0,-100.00,West,278,5.0,11.0,67,0.00,,,0.01,133.000000,,2013-03-02 21:02:00,
2013-03-02 16:12:00,29.0,19.0,-100.00,West,278,5.0,11.0,67,0.00,,,0.01,133.000000,,2013-03-02 21:12:00,
2013-03-02 16:42:00,29.0,19.0,-100.00,WNW,283,4.0,10.0,66,0.00,,,0.01,62.000000,,2013-03-02 21:42:00,
2013-03-02 16:52:00,29.0,19.0,-100.00,WNW,283,4.0,10.0,66,0.00,,,0.01,62.000000,,2013-03-02 21:52:00,
2013-03-02 17:02:00,29.0,19.0,-100.00,WNW,283,4.0,10.0,66,0.00,,,0.01,62.000000,,2013-03-02 22:02:00,
2013-03-02 17:11:00,29.0,19.0,-100.00,WNW,283,4.0,10.0,66,0.00,,,0.01,62.000000,,2013-03-02 22:11:00,
2013-03-02 17:42:00,27.0,19.0,-100.00,West,259,4.0,10.0,71,0.00,,,0.01,29.000000,,2013-03-02 22:42:00,
2013-03-02 17:52:00,27.0,19.0,-100.00,West,259,4.0,10.0,71,0.00,,,0.01,29.000000,,2013-03-02 22:52:00,
2013-03-02 18:02:00,27.0,19.0,-100.00,West,259,4.0,10.0,71,0.00,,,0.01,29.000000,,2013-03-02 23:02:00,
2013-03-02 18:11:00,27.0,19.0,-100.00,West,259,4.0,10.0,71,0.00,,,0.01,29.000000,,2013-03-02 23:11:00,
2013-03-02 18:32:00,27.0,19.0,-100.00,NW,311,3.0,7.0,72,0.00,,,0.01,9.000000,,2013-03-02 23:32:00,
2013-03-02 18:42:00,27.0,19.0,-100.00,NW,311,3.0,7.0,72,0.00,,,0.01,9.000000,,2013-03-02 23:42:00,
2013-03-02 18:52:00,27.0,19.0,-100.00,NW,311,3.0,7.0,72,0.00,,,0.01,9.000000,,2013-03-02 23:52:00,
2013-03-02 19:02:00,27.0,19.0,-100.00,NW,311,3.0,7.0,72,0.00,,,0.01,9.000000,,2013-03-03 00:02:00,
2013-03-02 19:11:00,27.0,19.0,-100.00,NW,311,3.0,7.0,72,0.00,,,0.01,9.000000,,2013-03-03 00:11:00,
2013-03-02 19:42:00,27.0,20.0,-100.00,West,264,3.0,10.0,73,0.00,,,0.01,0.000000,,2013-03-03 00:42:00,
2013-03-02 19:52:00,27.0,20.0,-100.00,West,264,3.0,10.0,73,0.00,,,0.01,0.000000,,2013-03-03 00:52:00,
2013-03-02 20:01:00,27.0,20.0,-100.00,West,264,3.0,10.0,73,0.00,,,0.01,0.000000,,2013-03-03 01:01:00,
2013-03-02 20:11:00,27.0,20.0,-100.00,West,264,3.0,10.0,73,0.00,,,0.01,0.000000,,2013-03-03 01:11:00,
2013-03-02 20:42:00,27.0,21.0,-100.00,West,278,2.0,7.0,77,0.00,,,0.01,0.000000,,2013-03-03 01:42:00,
2013-03-02 20:52:00,27.0,21.0,-100.00,West,278,2.0,7.0,77,0.00,,,0.01,0.000000,,2013-03-03 01:52:00,
2013-03-02 21:01:00,27.0,21.0,-100.00,West,278,2.0,7.0,77,0.00,,,0.01,0.000000,,2013-03-03 02:01:00,
2013-03-02 21:11:00,27.0,21.0,-100.00,West,278,2.0,7.0,77,0.00,,,0.01,0.000000,,2013-03-03 02:11:00,
2013-03-02 21:32:00,27.0,22.0,-100.00,West,273,3.0,6.0,81,0.00,,,0.01,0.000000,,2013-03-03 02:32:00,
2013-03-02 21:42:00,27.0,22.0,-100.00,West,273,3.0,6.0,81,0.00,,,0.01,0.000000,,2013-03-03 02:42:00,
2013-03-02 21:52:00,27.0,22.0,-100.00,West,273,3.0,6.0,81,0.00,,,0.01,0.000000,,2013-03-03 02:52:00,
2013-03-02 22:02:00,27.0,22.0,-100.00,West,273,3.0,6.0,81,0.00,,,0.01,0.000000,,2013-03-03 03:02:00,
2013-03-02 22:11:00,27.0,22.0,-100.00,West,273,3.0,6.0,81,0.00,,,0.01,0.000000,,2013-03-03 03:11:00,
2013-03-02 22:32:00,26.0,22.0,-100.00,West,277,2.0,6.0,84,0.00,,,0.01,0.000000,,2013-03-03 03:32:00,
2013-03-02 22:42:00,26.0,22.0,-100.00,West,277,2.0,6.0,84,0.00,,,0.01,0.000000,,2013-03-03 03:42:00,
2013-03-02 22:52:00,26.0,22.0,-100.00,West,277,2.0,6.0,84,0.00,,,0.01,0.000000,,2013-03-03 03:52:00,
2013-03-02 23:01:00,26.0,22.0,-100.00,West,277,2.0,6.0,84,0.00,,,0.01,0.000000,,2013-03-03 04:01:00,
2013-03-02 23:11:00,26.0,22.0,-100.00,West,277,2.0,6.0,84,0.00,,,0.01,0.000000,,2013-03-03 04:11:00,
2013-03-02 23:32:00,26.0,22.0,-100.00,West,280,2.0,6.0,84,0.00,,,0.01,0.000000,,2013-03-03 04:32:00,
2013-03-02 23:42:00,26.0,22.0,-100.00,West,280,2.0,6.0,84,0.00,,,0.01,0.000000,,2013-03-03 04:42:00,
2013-03-02 23:52:00,26.0,22.0,-100.00,West,280,2.0,6.0,84,0.00,,,0.01,0.000000,,2013-03-03 04:52:00,